Snow/Ice From: 16-12-2017 16:00 Until: 17-12-2017 16:00 warning for: Snow/Ice Level: Yellow info button

Although rather usual in this region, locally or potentially dangerous phenomena are expected. (such as local winds, summer thunderstorms, rising streams or high waves) Be aware and pay attention to the latest weather updates, especially if you carry out activities exposed to weather or close to a stream or shoreline. 


Meteo18 Weather Cam more information Meteo18 Weather Cam


Thunder radar more information blitzortung!


warning for Snow/Ice more information rain snow radar


Visit our other weather sites:

Template documentation
and downloads

And another site



Weather Underground History page Text

Daily Summary for March 21, 2017 Units:  Metric    English   Both
« Previous Day
Next Day »
Daily Weekly Monthly Yearly Custom
  High: Low: Average:
Temperature: 9.7 °C 3.6 °C 7.6 °C
Dew Point: 8.5 °C 2.9 °C 6.2 °C
Humidity: 97 % 80 % 91 %
Wind Speed: 19.3 km/h 0.0 km/h 6.3 km/h
Wind Gust: 29.0 km/h - -
Wind:- - WSW
Pressure: 1016.5 hPa 1013.4 hPa -
Precipitation: 6.3 mm    
Historical Graphs
 
 
Tabular Data for March 21, 2017
Time Temperature Dew Point Pressure Wind Wind Speed Wind Gust Humidity Rainfall Rate (Hourly)
00:02 9.7 °C 6.4 °C 1015.1 hPa WSW 8.0 km/h 17.7 km/h 80 % 0.0 mm
00:12 9.7 °C 6.4 °C 1015.1 hPa SW 14.5 km/h 17.7 km/h 80 % 0.0 mm
00:17 9.7 °C 6.4 °C 1015.1 hPa WSW 8.0 km/h 17.7 km/h 80 % 0.0 mm
00:22 9.6 °C 6.3 °C 1015.1 hPa SW 9.7 km/h 16.1 km/h 80 % 0.0 mm
00:32 9.6 °C 6.3 °C 1015.1 hPa WNW 6.4 km/h 14.5 km/h 80 % 0.0 mm
00:37 9.6 °C 6.3 °C 1015.1 hPa WSW 9.7 km/h 14.5 km/h 80 % 0.0 mm
00:42 9.6 °C 6.3 °C 1014.8 hPa WSW 9.7 km/h 16.1 km/h 80 % 0.0 mm
00:47 9.6 °C 6.5 °C 1014.8 hPa WSW 6.4 km/h 14.5 km/h 81 % 0.0 mm
00:52 9.6 °C 6.5 °C 1014.8 hPa SW 4.8 km/h 14.5 km/h 81 % 0.0 mm
00:57 9.6 °C 6.5 °C 1014.8 hPa SW 12.9 km/h 17.7 km/h 81 % 0.0 mm
01:02 9.6 °C 6.5 °C 1014.8 hPa WSW 19.3 km/h 19.3 km/h 81 % 0.0 mm
01:12 9.6 °C 6.5 °C 1014.8 hPa SW 14.5 km/h 19.3 km/h 81 % 0.0 mm
01:17 9.6 °C 6.7 °C 1014.8 hPa WSW 6.4 km/h 22.5 km/h 82 % 0.0 mm
01:22 9.5 °C 6.6 °C 1014.8 hPa West 12.9 km/h 22.5 km/h 82 % 0.0 mm
01:27 9.5 °C 6.6 °C 1014.8 hPa SW 8.0 km/h 22.5 km/h 82 % 0.0 mm
01:32 9.5 °C 6.6 °C 1014.8 hPa WSW 12.9 km/h 22.5 km/h 82 % 0.0 mm
01:42 9.5 °C 6.6 °C 1014.8 hPa WSW 11.3 km/h 29.0 km/h 82 % 0.0 mm
01:52 9.4 °C 6.7 °C 1014.8 hPa SW 11.3 km/h 22.5 km/h 83 % 0.0 mm
01:57 9.4 °C 6.7 °C 1014.4 hPa WSW 6.4 km/h 20.9 km/h 83 % 0.0 mm
02:02 9.4 °C 6.8 °C 1014.4 hPa WSW 17.7 km/h 20.9 km/h 84 % 0.0 mm
02:07 9.4 °C 6.8 °C 1014.4 hPa SW 12.9 km/h 27.4 km/h 84 % 0.0 mm
02:12 9.3 °C 6.7 °C 1014.4 hPa WSW 14.5 km/h 27.4 km/h 84 % 0.0 mm
02:17 9.3 °C 6.7 °C 1014.4 hPa WSW 17.7 km/h 22.5 km/h 84 % 0.0 mm
02:22 9.3 °C 6.7 °C 1014.4 hPa WSW 11.3 km/h 22.5 km/h 84 % 0.0 mm
02:27 9.3 °C 6.7 °C 1014.4 hPa WSW 9.7 km/h 25.7 km/h 84 % 0.0 mm
02:32 9.2 °C 6.6 °C 1014.4 hPa SSW 9.7 km/h 25.7 km/h 84 % 0.0 mm
02:42 9.2 °C 6.8 °C 1014.4 hPa WSW 14.5 km/h 19.3 km/h 85 % 0.0 mm
02:47 9.2 °C 6.8 °C 1014.4 hPa SW 14.5 km/h 19.3 km/h 85 % 0.0 mm
02:52 9.2 °C 6.8 °C 1014.4 hPa SW 8.0 km/h 19.3 km/h 85 % 0.0 mm
02:57 9.1 °C 6.7 °C 1014.4 hPa SW 6.4 km/h 19.3 km/h 85 % 0.0 mm
03:02 9.2 °C 6.8 °C 1014.1 hPa WSW 6.4 km/h 19.3 km/h 85 % 0.0 mm
03:07 9.2 °C 6.8 °C 1014.1 hPa SW 8.0 km/h 17.7 km/h 85 % 0.0 mm
03:12 9.1 °C 6.7 °C 1014.1 hPa SW 9.7 km/h 17.7 km/h 85 % 0.0 mm
03:17 9.1 °C 6.9 °C 1014.1 hPa SW 9.7 km/h 22.5 km/h 86 % 0.0 mm
03:22 9.0 °C 7.0 °C 1014.1 hPa WSW 6.4 km/h 22.5 km/h 87 % 0.0 mm
03:32 8.8 °C 6.8 °C 1014.1 hPa SW 11.3 km/h 19.3 km/h 87 % 0.0 mm
03:37 8.8 °C 6.9 °C 1014.1 hPa SW 9.7 km/h 17.7 km/h 88 % 0.0 mm
03:42 8.8 °C 6.9 °C 1014.1 hPa SW 16.1 km/h 17.7 km/h 88 % 0.0 mm
03:52 8.8 °C 6.9 °C 1014.1 hPa WSW 17.7 km/h 19.3 km/h 88 % 0.0 mm
03:57 8.7 °C 6.8 °C 1013.8 hPa SW 9.7 km/h 22.5 km/h 88 % 0.0 mm
04:02 8.6 °C 7.1 °C 1013.8 hPa WSW 9.7 km/h 22.5 km/h 90 % 0.0 mm
04:07 8.5 °C 7.1 °C 1013.8 hPa SW 12.9 km/h 22.5 km/h 91 % 0.0 mm
04:12 8.4 °C 7.2 °C 1013.8 hPa WSW 11.3 km/h 22.5 km/h 92 % 0.0 mm
04:17 8.3 °C 7.1 °C 1013.8 hPa SW 8.0 km/h 17.7 km/h 92 % 0.0 mm
04:22 8.3 °C 7.1 °C 1013.8 hPa SW 4.8 km/h 17.7 km/h 92 % 0.0 mm
04:27 8.3 °C 7.1 °C 1013.8 hPa WSW 6.4 km/h 20.9 km/h 92 % 0.0 mm
04:32 8.3 °C 7.1 °C 1013.8 hPa SW 11.3 km/h 20.9 km/h 92 % 0.0 mm
04:42 8.4 °C 7.0 °C 1013.8 hPa SW 11.3 km/h 17.7 km/h 91 % 0.0 mm
04:47 8.4 °C 7.0 °C 1013.8 hPa SW 16.1 km/h 20.9 km/h 91 % 0.0 mm
04:52 8.3 °C 7.1 °C 1013.8 hPa SW 12.9 km/h 20.9 km/h 92 % 0.0 mm
04:57 8.2 °C 7.1 °C 1013.8 hPa SW 11.3 km/h 22.5 km/h 93 % 0.0 mm
05:02 8.2 °C 7.1 °C 1013.8 hPa SW 9.7 km/h 22.5 km/h 93 % 0.0 mm
05:07 8.1 °C 7.0 °C 1013.8 hPa SSW 17.7 km/h 22.5 km/h 93 % 0.0 mm
05:17 8.1 °C 7.2 °C 1013.8 hPa SSW 11.3 km/h 20.9 km/h 94 % 0.0 mm
05:22 8.1 °C 7.2 °C 1013.4 hPa SW 12.9 km/h 20.9 km/h 94 % 0.0 mm
05:32 8.1 °C 7.2 °C 1013.4 hPa SSW 12.9 km/h 19.3 km/h 94 % 0.0 mm
05:42 8.1 °C 7.2 °C 1013.4 hPa SSW 9.7 km/h 20.9 km/h 94 % 0.0 mm
05:52 8.0 °C 7.1 °C 1013.4 hPa SW 9.7 km/h 19.3 km/h 94 % 0.0 mm
06:02 7.9 °C 7.1 °C 1013.4 hPa SSW 11.3 km/h 17.7 km/h 95 % 0.0 mm
06:12 7.9 °C 7.1 °C 1013.8 hPa SW 12.9 km/h 17.7 km/h 95 % 0.0 mm
06:17 7.9 °C 7.1 °C 1013.4 hPa SW 9.7 km/h 17.7 km/h 95 % 0.0 mm
06:27 7.8 °C 7.2 °C 1013.4 hPa SW 8.0 km/h 17.7 km/h 96 % 0.0 mm
06:32 7.8 °C 7.2 °C 1013.4 hPa SW 9.7 km/h 17.7 km/h 96 % 0.0 mm
06:42 7.8 °C 7.2 °C 1013.4 hPa SW 9.7 km/h 16.1 km/h 96 % 0.0 mm
06:47 7.8 °C 7.2 °C 1013.4 hPa SSW 9.7 km/h 16.1 km/h 96 % 0.0 mm
06:52 7.8 °C 7.2 °C 1013.4 hPa SSW 9.7 km/h 16.1 km/h 96 % 0.0 mm
06:57 7.8 °C 7.2 °C 1013.4 hPa SW 11.3 km/h 16.1 km/h 96 % 0.0 mm
07:02 7.8 °C 7.2 °C 1013.4 hPa SW 9.7 km/h 16.1 km/h 96 % 0.0 mm
07:07 7.8 °C 7.2 °C 1013.4 hPa WSW 8.0 km/h 16.1 km/h 96 % 0.0 mm
07:12 7.8 °C 7.2 °C 1013.4 hPa SSW 6.4 km/h 16.1 km/h 96 % 0.0 mm
07:17 7.8 °C 7.2 °C 1013.4 hPa SW 12.9 km/h 16.1 km/h 96 % 0.0 mm
07:22 7.8 °C 7.2 °C 1013.4 hPa SW 11.3 km/h 17.7 km/h 96 % 0.0 mm
07:27 7.8 °C 7.2 °C 1013.4 hPa SW 8.0 km/h 17.7 km/h 96 % 0.0 mm
07:32 7.9 °C 7.3 °C 1013.8 hPa SW 6.4 km/h 17.7 km/h 96 % 0.0 mm
07:37 7.9 °C 7.3 °C 1013.8 hPa SSW 8.0 km/h 17.7 km/h 96 % 0.0 mm
07:42 7.9 °C 7.3 °C 1013.4 hPa SW 14.5 km/h 16.1 km/h 96 % 0.0 mm
07:47 7.9 °C 7.5 °C 1013.8 hPa SW 11.3 km/h 16.1 km/h 97 % 0.0 mm
07:52 7.9 °C 7.5 °C 1013.8 hPa SW 11.3 km/h 17.7 km/h 97 % 0.0 mm
07:57 8.0 °C 7.6 °C 1013.8 hPa SSW 8.0 km/h 17.7 km/h 97 % 0.0 mm
08:02 8.0 °C 7.6 °C 1013.8 hPa SW 8.0 km/h 14.5 km/h 97 % 0.0 mm
08:07 8.1 °C 7.7 °C 1013.8 hPa SW 9.7 km/h 14.5 km/h 97 % 0.0 mm
08:12 8.1 °C 7.7 °C 1013.8 hPa SW 4.8 km/h 16.1 km/h 97 % 0.0 mm
08:17 8.1 °C 7.7 °C 1013.8 hPa SW 4.8 km/h 16.1 km/h 97 % 0.0 mm
08:22 8.1 °C 7.7 °C 1013.8 hPa SW 8.0 km/h 14.5 km/h 97 % 0.0 mm
08:32 8.2 °C 7.8 °C 1013.8 hPa SW 9.7 km/h 14.5 km/h 97 % 0.0 mm
08:37 8.2 °C 7.8 °C 1013.8 hPa SW 4.8 km/h 14.5 km/h 97 % 0.0 mm
08:42 8.2 °C 7.8 °C 1013.8 hPa SW 6.4 km/h 12.9 km/h 97 % 0.0 mm
08:47 8.3 °C 7.9 °C 1013.8 hPa WSW 9.7 km/h 12.9 km/h 97 % 0.0 mm
08:57 8.4 °C 8.0 °C 1013.8 hPa West 9.7 km/h 11.3 km/h 97 % 0.3 mm
09:02 8.4 °C 7.8 °C 1013.8 hPa WSW 6.4 km/h 16.1 km/h 96 % 0.3 mm
09:07 8.4 °C 7.8 °C 1013.8 hPa West 3.2 km/h 16.1 km/h 96 % 0.3 mm
09:17 8.6 °C 8.0 °C 1013.8 hPa SW 4.8 km/h 14.5 km/h 96 % 0.5 mm
09:22 8.6 °C 8.0 °C 1013.8 hPa West 8.0 km/h 14.5 km/h 96 % 0.5 mm
09:27 8.6 °C 8.0 °C 1013.8 hPa West 6.4 km/h 14.5 km/h 96 % 0.5 mm
09:32 8.7 °C 8.1 °C 1013.8 hPa WSW 8.0 km/h 16.1 km/h 96 % 0.5 mm
09:37 8.7 °C 7.9 °C 1014.1 hPa West 3.2 km/h 16.1 km/h 95 % 0.5 mm
09:42 8.8 °C 8.0 °C 1014.1 hPa West 4.8 km/h 16.1 km/h 95 % 0.5 mm
09:47 8.8 °C 8.0 °C 1014.1 hPa WSW 1.6 km/h 16.1 km/h 95 % 0.5 mm
09:52 8.9 °C 8.1 °C 1013.8 hPa West 4.8 km/h 14.5 km/h 95 % 0.8 mm
09:57 8.9 °C 8.1 °C 1013.8 hPa WSW 3.2 km/h 14.5 km/h 95 % 0.8 mm
10:02 9.0 °C 8.2 °C 1013.8 hPa Calm   9.7 km/h 95 % 1.0 mm
10:07 9.1 °C 8.2 °C 1014.1 hPa West 1.6 km/h 9.7 km/h 94 % 1.0 mm
10:12 9.1 °C 8.2 °C 1014.1 hPa WSW 1.6 km/h 4.8 km/h 94 % 1.0 mm
10:17 9.1 °C 8.2 °C 1014.1 hPa West 1.6 km/h 4.8 km/h 94 % 1.0 mm
10:22 9.1 °C 8.0 °C 1014.1 hPa SW 3.2 km/h 3.2 km/h 93 % 1.0 mm
10:27 9.1 °C 8.0 °C 1014.1 hPa Calm   3.2 km/h 93 % 1.0 mm
10:32 9.2 °C 8.0 °C 1014.1 hPa Calm   4.8 km/h 92 % 1.0 mm
10:37 9.3 °C 8.1 °C 1014.1 hPa SW 3.2 km/h 4.8 km/h 92 % 1.0 mm
10:42 9.3 °C 8.2 °C 1014.1 hPa Calm   6.4 km/h 93 % 0.8 mm
10:47 9.4 °C 8.3 °C 1014.1 hPa Calm   6.4 km/h 93 % 0.8 mm
10:52 9.4 °C 8.3 °C 1014.1 hPa SW 3.2 km/h 6.4 km/h 93 % 0.5 mm
11:02 9.4 °C 8.5 °C 1014.1 hPa WNW 3.2 km/h 4.8 km/h 94 % 0.5 mm
11:12 9.4 °C 8.3 °C 1014.1 hPa WSW 6.4 km/h 6.4 km/h 93 % 0.8 mm
11:17 9.3 °C 8.1 °C 1014.4 hPa West 3.2 km/h 6.4 km/h 92 % 0.8 mm
11:22 9.3 °C 8.1 °C 1014.1 hPa WSW 4.8 km/h 12.9 km/h 92 % 0.5 mm
11:32 9.3 °C 7.7 °C 1014.4 hPa West 4.8 km/h 12.9 km/h 90 % 0.8 mm
11:37 9.3 °C 7.4 °C 1014.4 hPa WNW 8.0 km/h 12.9 km/h 88 % 0.8 mm
11:42 9.4 °C 7.7 °C 1014.4 hPa WNW 6.4 km/h 12.9 km/h 89 % 0.8 mm
11:47 9.2 °C 7.3 °C 1014.4 hPa NNW 12.9 km/h 12.9 km/h 88 % 0.8 mm
11:52 8.8 °C 6.9 °C 1014.4 hPa West 8.0 km/h 16.1 km/h 88 % 1.3 mm
12:02 8.4 °C 6.5 °C 1014.4 hPa NW 11.3 km/h 17.7 km/h 88 % 1.5 mm
12:07 8.5 °C 6.8 °C 1014.4 hPa WNW 1.6 km/h 17.7 km/h 89 % 1.3 mm
12:12 8.6 °C 6.9 °C 1014.4 hPa WNW 8.0 km/h 17.7 km/h 89 % 1.3 mm
12:17 8.7 °C 7.2 °C 1014.4 hPa NW 3.2 km/h 14.5 km/h 90 % 1.3 mm
12:22 8.8 °C 7.1 °C 1014.4 hPa NW 1.6 km/h 11.3 km/h 89 % 1.0 mm
12:32 8.9 °C 7.2 °C 1014.4 hPa WNW 4.8 km/h 11.3 km/h 89 % 1.0 mm
12:37 9.0 °C 7.3 °C 1014.8 hPa WNW 4.8 km/h 11.3 km/h 89 % 1.0 mm
12:42 8.9 °C 7.0 °C 1014.8 hPa West 8.0 km/h 11.3 km/h 88 % 1.0 mm
12:47 8.9 °C 7.2 °C 1014.8 hPa NW 11.3 km/h 14.5 km/h 89 % 0.5 mm
12:52 8.8 °C 6.4 °C 1014.8 hPa NW 6.4 km/h 14.5 km/h 85 % 0.3 mm
12:57 8.7 °C 6.3 °C 1014.8 hPa WNW 11.3 km/h 17.7 km/h 85 % 0.5 mm
13:02 8.6 °C 6.0 °C 1014.4 hPa NW 3.2 km/h 17.7 km/h 84 % 0.5 mm
13:07 8.7 °C 6.3 °C 1014.4 hPa West 1.6 km/h 16.1 km/h 85 % 0.3 mm
13:12 8.8 °C 6.9 °C 1014.4 hPa NW 3.2 km/h 16.1 km/h 88 % 0.3 mm
13:17 8.8 °C 6.8 °C 1014.8 hPa WNW 11.3 km/h 11.3 km/h 87 % 0.3 mm
13:22 8.7 °C 6.3 °C 1014.8 hPa NW 3.2 km/h 9.7 km/h 85 % 0.3 mm
13:32 8.4 °C 6.4 °C 1014.8 hPa WNW 3.2 km/h 12.9 km/h 87 % 0.3 mm
13:47 8.4 °C 6.9 °C 1014.8 hPa WNW 8.0 km/h 12.9 km/h 90 % 0.5 mm
13:52 8.4 °C 6.9 °C 1014.8 hPa NNW 16.1 km/h 16.1 km/h 90 % 0.5 mm
13:57 7.8 °C 6.1 °C 1015.1 hPa NNW 11.3 km/h 24.1 km/h 89 % 0.5 mm
14:02 7.3 °C 5.8 °C 1015.1 hPa WNW 9.7 km/h 24.1 km/h 90 % 0.5 mm
14:12 7.0 °C 5.8 °C 1015.1 hPa NW 3.2 km/h 25.7 km/h 92 % 0.8 mm
14:17 7.1 °C 5.9 °C 1015.1 hPa NW 11.3 km/h 25.7 km/h 92 % 1.0 mm
14:22 6.9 °C 5.5 °C 1015.1 hPa NW 9.7 km/h 25.7 km/h 91 % 1.0 mm
14:32 6.9 °C 5.4 °C 1015.1 hPa NW 16.1 km/h 24.1 km/h 90 % 1.3 mm
14:42 6.9 °C 5.2 °C 1015.1 hPa NW 1.6 km/h 20.9 km/h 89 % 1.3 mm
14:47 6.9 °C 5.4 °C 1015.1 hPa NNW 6.4 km/h 20.9 km/h 90 % 1.3 mm
14:52 6.9 °C 5.4 °C 1015.1 hPa NNE 3.2 km/h 20.9 km/h 90 % 1.3 mm
15:02 6.9 °C 5.4 °C 1015.1 hPa NW 6.4 km/h 16.1 km/h 90 % 1.3 mm
15:12 6.9 °C 5.4 °C 1015.1 hPa WNW 6.4 km/h 19.3 km/h 90 % 1.0 mm
15:17 6.8 °C 5.3 °C 1015.1 hPa NW 4.8 km/h 25.7 km/h 90 % 0.8 mm
15:22 6.7 °C 5.0 °C 1015.1 hPa WNW 6.4 km/h 25.7 km/h 89 % 0.8 mm
15:27 6.6 °C 5.1 °C 1015.1 hPa North 1.6 km/h 25.7 km/h 90 % 0.5 mm
15:32 6.7 °C 5.3 °C 1015.1 hPa NW 1.6 km/h 25.7 km/h 91 % 0.5 mm
15:37 6.7 °C 5.3 °C 1015.1 hPa NNW 8.0 km/h 16.1 km/h 91 % 0.5 mm
15:42 6.7 °C 5.2 °C 1015.1 hPa NNW 3.2 km/h 16.1 km/h 90 % 0.5 mm
15:47 6.7 °C 5.2 °C 1015.1 hPa West 4.8 km/h 14.5 km/h 90 % 0.5 mm
16:02 6.7 °C 5.0 °C 1015.1 hPa NNW 8.0 km/h 17.7 km/h 89 % 0.5 mm
16:12 6.7 °C 5.0 °C 1015.5 hPa NW 1.6 km/h 17.7 km/h 89 % 0.5 mm
16:17 6.7 °C 4.9 °C 1015.5 hPa NW 6.4 km/h 14.5 km/h 88 % 0.5 mm
16:27 6.7 °C 4.9 °C 1015.5 hPa Calm   14.5 km/h 88 % 0.3 mm
16:32 6.7 °C 4.9 °C 1015.5 hPa Calm   14.5 km/h 88 % 0.3 mm
16:37 6.7 °C 4.9 °C 1015.5 hPa Calm   8.0 km/h 88 % 0.3 mm
16:42 6.7 °C 4.9 °C 1015.5 hPa WNW 1.6 km/h 8.0 km/h 88 % 0.3 mm
16:47 6.8 °C 5.0 °C 1015.5 hPa WNW 1.6 km/h 3.2 km/h 88 % 0.3 mm
16:52 6.8 °C 5.0 °C 1015.5 hPa Calm   3.2 km/h 88 % 0.3 mm
17:02 6.8 °C 5.0 °C 1015.5 hPa Calm   3.2 km/h 88 % 0.3 mm
17:07 6.8 °C 5.0 °C 1015.5 hPa West 1.6 km/h 3.2 km/h 88 % 0.3 mm
17:12 6.8 °C 5.0 °C 1015.5 hPa WNW 1.6 km/h 3.2 km/h 88 % 0.3 mm
17:17 6.8 °C 5.0 °C 1015.5 hPa WNW 3.2 km/h 4.8 km/h 88 % 0.3 mm
17:22 6.8 °C 4.8 °C 1015.5 hPa WNW 6.4 km/h 6.4 km/h 87 % 0.3 mm
17:32 6.9 °C 5.1 °C 1015.5 hPa WSW 3.2 km/h 9.7 km/h 88 % 0.3 mm
17:37 6.9 °C 4.0 °C 1015.5 hPa West 3.2 km/h 12.9 km/h 82 % 0.3 mm
17:42 6.9 °C 4.2 °C 1015.5 hPa West 1.6 km/h 12.9 km/h 83 % 0.3 mm
17:47 6.9 °C 4.2 °C 1015.5 hPa WNW 6.4 km/h 12.9 km/h 83 % 0.3 mm
17:52 6.8 °C 4.5 °C 1015.5 hPa Calm   12.9 km/h 85 % 0.3 mm
18:02 6.7 °C 4.5 °C 1015.5 hPa West 1.6 km/h 6.4 km/h 86 % 0.3 mm
18:12 6.6 °C 4.6 °C 1015.5 hPa Calm   3.2 km/h 87 % 0.5 mm
18:17 6.5 °C 4.5 °C 1015.5 hPa Calm   3.2 km/h 87 % 0.5 mm
18:22 6.4 °C 4.4 °C 1015.5 hPa Calm   1.6 km/h 87 % 0.5 mm
18:27 6.4 °C 4.4 °C 1015.8 hPa Calm   1.6 km/h 87 % 0.5 mm
18:32 6.4 °C 4.4 °C 1015.8 hPa Calm   1.6 km/h 87 % 0.5 mm
18:37 6.4 °C 4.6 °C 1015.8 hPa Calm   1.6 km/h 88 % 0.5 mm
18:42 6.4 °C 4.9 °C 1015.8 hPa Calm   1.6 km/h 90 % 0.3 mm
18:52 6.4 °C 5.0 °C 1015.8 hPa Calm   1.6 km/h 91 % 0.3 mm
18:57 6.3 °C 4.9 °C 1015.8 hPa Calm   1.6 km/h 91 % 0.3 mm
19:02 6.2 °C 4.8 °C 1016.1 hPa Calm   1.6 km/h 91 % 0.3 mm
19:07 6.2 °C 5.0 °C 1016.1 hPa Calm   1.6 km/h 92 % 0.3 mm
19:12 6.2 °C 5.0 °C 1016.1 hPa Calm   1.6 km/h 92 % 0.0 mm
19:17 6.2 °C 5.0 °C 1016.1 hPa SSW 3.2 km/h 4.8 km/h 92 % 0.0 mm
19:22 6.2 °C 5.0 °C 1016.1 hPa Calm   4.8 km/h 92 % 0.0 mm
19:32 6.3 °C 5.3 °C 1016.1 hPa SSW 1.6 km/h 4.8 km/h 93 % 0.0 mm
19:37 6.3 °C 5.3 °C 1016.1 hPa South 1.6 km/h 6.4 km/h 93 % 0.0 mm
19:42 6.3 °C 5.3 °C 1016.1 hPa SSW 3.2 km/h 6.4 km/h 93 % 0.0 mm
19:52 6.2 °C 5.2 °C 1016.1 hPa SW 3.2 km/h 6.4 km/h 93 % 0.0 mm
19:57 6.2 °C 5.2 °C 1016.1 hPa SSW 3.2 km/h 9.7 km/h 93 % 0.0 mm
20:02 6.1 °C 5.1 °C 1016.1 hPa SW 4.8 km/h 9.7 km/h 93 % 0.0 mm
20:07 6.1 °C 5.1 °C 1016.5 hPa SW 4.8 km/h 9.7 km/h 93 % 0.0 mm
20:12 6.1 °C 5.1 °C 1016.5 hPa Calm   9.7 km/h 93 % 0.0 mm
20:17 6.0 °C 5.0 °C 1016.5 hPa SSW 3.2 km/h 8.0 km/h 93 % 0.0 mm
20:22 6.0 °C 5.1 °C 1016.5 hPa WSW 6.4 km/h 8.0 km/h 94 % 0.0 mm
20:32 5.9 °C 5.0 °C 1016.5 hPa SW 6.4 km/h 11.3 km/h 94 % 0.0 mm
20:37 5.9 °C 5.0 °C 1016.5 hPa SW 4.8 km/h 9.7 km/h 94 % 0.0 mm
20:42 5.8 °C 4.9 °C 1016.5 hPa SW 8.0 km/h 9.7 km/h 94 % 0.0 mm
20:52 5.8 °C 4.9 °C 1016.5 hPa SSW 1.6 km/h 9.7 km/h 94 % 0.0 mm
20:57 5.7 °C 4.8 °C 1016.5 hPa SW 3.2 km/h 11.3 km/h 94 % 0.0 mm
21:02 5.7 °C 4.8 °C 1016.5 hPa SW 3.2 km/h 11.3 km/h 94 % 0.0 mm
21:07 5.7 °C 4.8 °C 1016.5 hPa WSW 6.4 km/h 9.7 km/h 94 % 0.0 mm
21:12 5.6 °C 4.7 °C 1016.5 hPa SW 3.2 km/h 9.7 km/h 94 % 0.0 mm
21:17 5.5 °C 4.6 °C 1016.5 hPa SW 1.6 km/h 12.9 km/h 94 % 0.0 mm
21:22 5.4 °C 4.5 °C 1016.1 hPa SW 8.0 km/h 12.9 km/h 94 % 0.0 mm
21:32 5.3 °C 4.3 °C 1016.1 hPa WSW 6.4 km/h 14.5 km/h 93 % 0.0 mm
21:42 5.2 °C 4.3 °C 1016.1 hPa SW 3.2 km/h 14.5 km/h 94 % 0.0 mm
21:52 5.1 °C 4.1 °C 1016.1 hPa SW 4.8 km/h 9.7 km/h 93 % 0.0 mm
21:57 4.9 °C 3.9 °C 1016.1 hPa SSW 3.2 km/h 11.3 km/h 93 % 0.0 mm
22:02 4.8 °C 3.9 °C 1016.1 hPa SW 6.4 km/h 11.3 km/h 94 % 0.0 mm
22:12 4.8 °C 3.9 °C 1016.1 hPa SSW 4.8 km/h 8.0 km/h 94 % 0.0 mm
22:17 4.7 °C 3.8 °C 1016.1 hPa SW 4.8 km/h 11.3 km/h 94 % 0.0 mm
22:22 4.6 °C 3.7 °C 1016.5 hPa SW 4.8 km/h 11.3 km/h 94 % 0.0 mm
22:32 4.4 °C 3.7 °C 1016.5 hPa SSW 1.6 km/h 8.0 km/h 95 % 0.0 mm
22:37 4.4 °C 3.7 °C 1016.5 hPa South 3.2 km/h 6.4 km/h 95 % 0.0 mm
22:42 4.3 °C 3.6 °C 1016.5 hPa Calm   6.4 km/h 95 % 0.0 mm
22:47 4.3 °C 3.6 °C 1016.5 hPa SSW 1.6 km/h 4.8 km/h 95 % 0.0 mm
22:52 4.3 °C 3.6 °C 1016.5 hPa SSW 1.6 km/h 4.8 km/h 95 % 0.0 mm
23:02 4.3 °C 3.6 °C 1016.5 hPa Calm   4.8 km/h 95 % 0.0 mm
23:07 4.2 °C 3.5 °C 1016.5 hPa Calm   6.4 km/h 95 % 0.0 mm
23:12 4.1 °C 3.4 °C 1016.5 hPa SW 1.6 km/h 6.4 km/h 95 % 0.0 mm
23:17 4.1 °C 3.4 °C 1016.5 hPa SW 1.6 km/h 3.2 km/h 95 % 0.0 mm
23:22 4.1 °C 3.4 °C 1016.5 hPa SSW 3.2 km/h 3.2 km/h 95 % 0.0 mm
23:32 3.9 °C 3.2 °C 1016.1 hPa SSW 1.6 km/h 4.8 km/h 95 % 0.0 mm
23:37 3.9 °C 3.2 °C 1016.5 hPa SSW 3.2 km/h 4.8 km/h 95 % 0.0 mm
23:42 3.9 °C 3.2 °C 1016.1 hPa SSW 1.6 km/h 4.8 km/h 95 % 0.0 mm
23:47 3.8 °C 3.1 °C 1016.1 hPa Calm   4.8 km/h 95 % 0.0 mm
23:52 3.7 °C 3.0 °C 1016.1 hPa Calm   4.8 km/h 95 % 0.0 mm
23:57 3.6 °C 2.9 °C 1016.1 hPa Calm   3.2 km/h 95 % 0.0 mm
Meteo18
Compliments of Weather Underground - 4 mb

Script developed by  Jim McMurry - jmcmurry@mwt.net Adapted for the template by  Wim van der Kuil - Leuven-Template.eu

You find our weather info also at:

European Weather Network

Weather Underground

Equipment we use:

Weather-station
Davis Vue

Weather-program
Meteohub

Weather-server
Raspberry PI 2 B+

Provider
1 and 1

Davis Vue

Meteohub

Raspberry PI 2 B+

1 and 1